Regional Weather Roundup
Issued by NWS

Home | Current Version | Previous Version | Graphics & Text | Print | Product List | Glossary Off
Versions: 1 2 3 4 5 6 7 8 9 10 11 12 13 14 15 16 17 18 19 20 21 22 23 24 25 26 27 28 29 30 31 32 33 34 35 36 37 38 39 40 41 42 43 44 45 46 47 48 49 50

000
ASUS43 KLSX 030159
RWRMO

WEATHER SUMMARY FOR MISSOURI
NATIONAL WEATHER SERVICE SPRINGFIELD MO
900 PM CDT THU JUL 02 2015

NOTE: "FAIR" INDICATES FEW OR NO CLOUDS BELOW 12,000 FEET WITH NO
       SIGNIFICANT WEATHER AND/OR OBSTRUCTIONS TO VISIBILITY.
       CURRENT SKY AND/OR WEATHER CONDITIONS ARE NOT AVAILABLE FOR
       CHILLICOTHE AND FARMINGTON.

MOZ001>031-035>038-043-044-053-054-030300-
...NORTHERN AND WESTERN MISSOURI...

CITY           SKY/WX    TMP DP  RH WIND       PRES   REMARKS
KANSAS CTY INT MOCLDY    68  67  96 NE8       29.89F FOG
KANSAS C DTWN  CLOUDY    70  67  90 E9        29.88F
LEE`S SUMMIT   CLOUDY    70  66  87 E7        29.90F
ST JOSEPH      CLOUDY    70  66  87 NE3       29.91S
CHILLICOTHE      N/A     68  58  70 NE7       29.94S
KIRKSVILLE     CLOUDY    65  60  84 CALM      29.95R

$$
MOZ066>068-077>081-088>096-101>105-030300-
...SOUTHWEST MISSOURI...

CITY           SKY/WX    TMP DP  RH WIND       PRES   REMARKS
SPRINGFIELD    CLOUDY    76  71  85 N3        29.90R
JOPLIN         MOCLDY    75  72  90 CALM      29.92R FOG

$$
MOZ032>034-039>042-045>050-055>058-069>072-030300-
...CENTRAL MISSOURI...

CITY           SKY/WX    TMP DP  RH WIND       PRES   REMARKS
COLUMBIA       CLOUDY    71  62  73 NE8       29.91R
JEFFERSON CITY CLOUDY    73  65  75 NE8       29.88S
ROLLA          CLOUDY    70  67  90 N6        29.88F
SEDALIA        CLOUDY    72  66  81 NE5       29.91S
OSAGE BEACH    CLOUDY    72  66  83 CALM      29.89R

$$
MOZ051-052-059>065-030300-
...EAST CENTRAL MISSOURI...

CITY           SKY/WX    TMP DP  RH WIND       PRES   REMARKS
ST LOUIS INTL  CLOUDY    73  61  65 NE9       29.91R
SPIRIT OF STL  CLOUDY    72  63  73 NE9       29.89R
ST CHARLES     CLOUDY    69  63  81 NE9       29.90R

$$
MOZ072>076-082>087-097>100-106>115-030300-
...SOUTH CENTRAL AND SOUTHEAST MISSOURI...

CITY           SKY/WX    TMP DP  RH WIND       PRES   REMARKS
CAPE GIRARDEAU MOCLDY    75  70  84 N7        29.86R
FARMINGTON     MOCLDY    72  68  88 NE3       29.92S
POPLAR BLUFF   CLOUDY    79  74  84 N6        29.84R
WEST PLAINS    MOCLDY    77  71  82 CALM      29.89R

$$


USA.gov is the U.S. government's official web portal to all federal, state and local government web resources and services.